Flag for Vietnam Weather past 2 weeks in Ho Chi Minh, Vietnam

Now
91 °F

Scattered clouds.


Feels Like: 99 °F
Forecast: 78 / 90 °F
Wind: 10 mph from Northwest

Location: Ho Chi Minh

Current Time: Aug 2, 2015 at 3:26:15 PM

Latest Report: Aug 2, 2015 at 3:00 PM


Visibility: N/A

Pressure: 29.74 "Hg

Humidity: 52%

Dew point: 72 °F

Location of Ho Chi MinhLocation

Historic Weather in Ho Chi Minh — Graph

°F

Ho Chi Minh temperature yesterday

Maximum temperature yesterday: 91 °F (at 12:00 PM)
Minimum temperature yesterday: 77 °F (at 2:00 AM)
Average temperature yesterday: 83 °F

Past Weeks' High & Low Weather Summary

 TemperatureHumidityPressure
High95 °F (Jul 22, 2:00 PM)94% (Jul 18, 10:30 PM)29.92 "Hg (Jul 18, 10:30 PM)
Low73 °F (Jul 28, 5:00 PM)41% (Jul 27, 1:30 PM)29.68 "Hg (Jul 18, 3:00 PM)
Average83 °F73%29.84 "Hg
* Reported Jul 18 2:00 PM — Aug 2 2:30 PM, Ho Chi Minh, Weather by CustomWeather, © 2015

Note: Actual official high and low records may vary slightly from our data, if they occured in-between our weather recording intervals... More about our weather records

Advertising

Ho Chi Minh weather history for previous 24 hours

 ConditionsComfort  
Time TempWeatherWind HumidityBarometerVisibility
2:30 PM
Sun, Aug 2
90 °FScattered clouds.9 mph55%29.77 "HgN/A
2:00 PM90 °FScattered clouds.12 mph52%29.77 "HgN/A
1:30 PM90 °FScattered clouds.10 mph55%29.77 "HgN/A
1:00 PM90 °FScattered clouds.8 mph55%29.80 "HgN/A
12:30 PM90 °FScattered clouds.8 mph55%29.80 "HgN/A
12:00 PM88 °FScattered clouds.7 mph59%29.83 "HgN/A
11:30 AM88 °FScattered clouds.8 mph62%29.83 "HgN/A
11:00 AM88 °FScattered clouds.8 mph62%29.86 "HgN/A
10:30 AM88 °FScattered clouds.5 mph55%29.86 "HgN/A
10:00 AM86 °FScattered clouds.3 mph66%29.86 "HgN/A
9:30 AM86 °FScattered clouds.3 mph66%29.86 "HgN/A
9:00 AM84 °FScattered clouds.1 mph70%29.86 "HgN/A
8:30 AM82 °FScattered clouds.1 mph74%29.86 "HgN/A
8:00 AM81 °FScattered clouds.3 mph79%29.83 "Hg5 mi
7:30 AM79 °FScattered clouds.5 mph84%29.83 "Hg4 mi
7:00 AM77 °FScattered clouds.5 mph89%29.83 "Hg4 mi
6:30 AM77 °FFog.3 mph89%29.83 "Hg3 mi
6:00 AM77 °FBroken clouds.2 mph89%29.83 "Hg4 mi
5:30 AM77 °FPassing clouds.2 mph89%29.83 "Hg5 mi
5:00 AM77 °FPassing clouds.2 mph89%29.83 "Hg5 mi
4:30 AM77 °FPassing clouds.No wind89%29.83 "HgN/A
4:00 AM77 °FPassing clouds.3 mph89%29.83 "HgN/A
3:30 AM77 °FPassing clouds.2 mph89%29.83 "HgN/A
3:00 AM75 °FPassing clouds.1 mph94%29.83 "HgN/A
2:30 AM75 °FPassing clouds.1 mph94%29.83 "HgN/A
2:00 AM75 °FLight rain. Passing clouds.1 mph89%29.83 "HgN/A
1:30 AM75 °FLight rain. Passing clouds.2 mph89%29.83 "HgN/A
1:00 AM75 °FLight rain. Passing clouds.3 mph89%29.83 "HgN/A
12:30 AM75 °FPassing clouds.3 mph89%29.86 "HgN/A
12:00 AM77 °FPassing clouds.5 mph83%29.86 "HgN/A
11:30 PM
Sat, Aug 1
77 °FPartly cloudy.3 mph83%29.86 "HgN/A
11:00 PM77 °FPassing clouds.5 mph83%29.89 "HgN/A
10:30 PM77 °FPassing clouds.10 mph83%29.89 "HgN/A
10:00 PM77 °FThunderstorms. Passing clouds.17 mph83%29.89 "Hg5 mi
9:30 PM82 °FPassing clouds.9 mph74%29.86 "HgN/A
9:00 PM82 °FPassing clouds.7 mph74%29.86 "HgN/A
8:30 PM82 °FPassing clouds.3 mph74%29.83 "HgN/A
8:00 PM82 °FPassing clouds.7 mph74%29.80 "HgN/A
7:30 PM82 °FPassing clouds.7 mph79%29.80 "HgN/A
7:00 PM84 °FPassing clouds.7 mph74%29.80 "HgN/A
6:30 PM84 °FPassing clouds.8 mph70%29.77 "HgN/A
6:00 PM84 °FScattered clouds.2 mph70%29.77 "HgN/A
5:30 PM86 °FScattered clouds.2 mph59%29.74 "HgN/A
5:00 PM82 °FLight rain. Scattered clouds.5 mph70%29.74 "Hg5 mi
4:30 PM84 °FThunderstorms. Scattered clouds.9 mph62%29.77 "Hg2 mi
4:00 PM82 °FThunderstorms. Scattered clouds.17 mph66%29.77 "Hg2 mi
3:30 PM84 °FSprinkles. Scattered clouds.13 mph66%29.74 "Hg5 mi
3:00 PM86 °FSprinkles. Scattered clouds.9 mph62%29.74 "Hg5 mi
Weather by CustomWeather, © 2015

See weather overviewHow to use our weather pages